Terug naar catalogus

FENGYUN 1C DEB

LostSSO
NORAD 30975·DEBRIS·🇨🇳 China

Gelanceerd May 10, 1999 vanaf Taiyuan Satellite Launch Center

Loading…

Volgende Passages (komende 24 uur)

TLE

VerouderdSource: Space-Track

Epoch: Jun 29, 2023, 05:48 UTC

1 30975U 99025BBR 23180.24225106  .00003622  00000-0  12236-2 0  9994
2 30975  99.0848 352.0045 0202299  23.1794 337.8354 14.26665204842174

Volg FENGYUN 1C DEB in realtime met AllMySat

Download on the App Store